DL6MAA-11 Weather Reports


time (UTC)temp
C
wind
direction
speed
KPH
gust
KPH
rain 1hr
cm
rain 24hr
cm
rain mn
cm
humidity
%
barometer
mb
20260505173702 15 71 0.0 0.0 0.00 0.00 0.00 71 1004.5
20260505173207 15 71 0.0 0.0 0.00 0.00 0.00 71 1004.5
20260505172653 15 355 0.0 0.0 0.00 0.00 0.00 71 1004.4
20260505172156 15 355 0.0 0.0 0.00 0.00 0.00 70 1004.4
20260505171701 15 355 1.6 0.0 0.00 0.00 0.00 68 1004.4
20260505171204 15 340 3.2 0.0 0.00 0.00 0.00 68 1004.0
20260505170705 15 351 3.2 0.0 0.00 0.00 0.00 68 1004.0
20260505170147 15 309 3.2 0.0 0.00 0.00 0.00 67 1004.0
20260505165657 15 299 4.8 0.0 0.00 0.00 0.00 64 1004.5
20260505165203 15 290 4.8 0.0 0.00 0.00 0.00 64 1004.5
20260505164705 15 292 3.2 0.0 0.00 0.00 0.00 64 1004.5
20260505164150 16 277 3.2 0.0 0.00 0.00 0.00 64 1004.6
20260505163700 16 299 3.2 0.0 0.00 0.00 0.00 63 1004.6
20260505163152 16 284 3.2 0.0 0.00 0.00 0.00 64 1004.6
20260505162652 16 360 3.2 0.0 0.00 0.00 0.00 64 1004.6
20260505162206 16 287 4.8 0.0 0.00 0.00 0.00 63 1004.6
20260505161705 16 303 8.0 0.0 0.00 0.00 0.00 62 1004.6
20260505161151 16 296 9.7 0.0 0.00 0.00 0.00 62 1004.6
20260505160656 16 268 9.7 0.0 0.00 0.00 0.00 62 1004.6
20260505160203 16 311 8.0 0.0 0.00 0.00 0.00 61 1004.6
20260505153157 17 277 6.4 0.0 0.00 0.00 0.00 57 1004.3
20260505152658 17 360 4.8 0.0 0.00 0.00 0.00 56 1004.3
20260505152207 17 315 8.0 0.0 0.00 0.00 0.00 57 1004.3
20260505151706 17 309 8.0 0.0 0.00 0.00 0.00 56 1004.3
20260505151210 17 360 8.0 0.0 0.00 0.00 0.00 57 1004.4
20260505150655 17 292 6.4 0.0 0.00 0.00 0.00 56 1004.4
20260505150158 17 325 6.4 0.0 0.00 0.00 0.00 58 1004.4
20260505140152 17 300 6.4 0.0 0.00 0.00 0.00 58 1005.2
20260505130204 18 306 12.9 0.0 0.00 0.00 0.00 62 1004.9
20260505124703 18 288 17.7 0.0 0.00 0.00 0.00 59 1004.9
20260505124208 18 270 16.1 0.0 0.00 0.00 0.00 58 1004.8
20260505123654 18 260 14.5 0.0 0.00 0.00 0.00 58 1004.8
20260505123153 18 311 12.9 0.0 0.00 0.00 0.00 56 1004.8
20260505122657 18 295 12.9 0.0 0.00 0.00 0.00 54 1005.0
20260505122205 18 294 12.9 0.0 0.00 0.00 0.00 58 1005.0
20260505121650 18 290 11.3 0.0 0.00 0.00 0.00 58 1005.0
20260505121153 18 295 11.3 0.0 0.00 0.00 0.00 56 1004.7
20260505120654 19 274 11.3 0.0 0.00 0.00 0.00 55 1004.7
20260505120200 19 269 9.7 0.0 0.00 0.00 0.00 54 1004.7
20260505115705 20 302 9.7 0.0 0.00 0.00 0.00 55 1004.6
20260505115207 20 275 8.0 0.0 0.00 0.00 0.00 55 1004.6
20260505114710 20 360 4.8 0.0 0.00 0.00 0.00 54 1004.6
20260505114156 20 280 4.8 0.0 0.00 0.00 0.00 53 1004.6
20260505113701 20 268 6.4 0.0 0.00 0.00 0.00 50 1004.6
20260505113149 20 267 6.4 0.0 0.00 0.00 0.00 51 1004.6
20260505112654 20 283 3.2 0.0 0.00 0.00 0.00 50 1004.6
20260505112156 20 171 0.0 0.0 0.00 0.00 0.00 51 1004.6
20260505111707 20 317 1.6 0.0 0.00 0.00 0.00 52 1004.6
20260505111155 20 281 1.6 0.0 0.00 0.00 0.00 51 1004.4
20260505110704 20 61 0.0 0.0 0.00 0.00 0.00 52 1004.4
20260505110207 21 61 0.0 0.0 0.00 0.00 0.00 53 1004.4
20260505102203 19 67 0.0 0.0 0.00 0.00 0.00 54 1005.0
20260505101709 19 340 0.0 0.0 0.00 0.00 0.00 54 1005.0
20260505101157 19 5 0.0 0.0 0.00 0.00 0.00 55 1004.9
20260505100700 19 56 0.0 0.0 0.00 0.00 0.00 56 1004.9
20260505100207 20 83 0.0 0.0 0.00 0.00 0.00 54 1004.9
20260505095657 19 360 0.0 0.0 0.00 0.00 0.00 56 1005.0
20260505095203 19 88 0.0 0.0 0.00 0.00 0.00 59 1005.0
20260505094700 19 161 1.6 0.0 0.00 0.00 0.00 57 1005.0
20260505094203 20 62 1.6 0.0 0.00 0.00 0.00 55 1005.0
20260505093649 20 198 1.6 0.0 0.00 0.00 0.00 55 1005.0
20260505093157 20 51 1.6 0.0 0.00 0.00 0.00 59 1005.0
20260505092648 19 45 0.0 0.0 0.00 0.00 0.00 60 1005.4
20260505092157 19 105 0.0 0.0 0.00 0.00 0.00 55 1005.4
20260505091706 19 63 0.0 0.0 0.00 0.00 0.00 57 1005.4
20260505091150 18 103 0.0 0.0 0.00 0.00 0.00 63 1005.5
20260505090649 18 109 0.0 0.0 0.00 0.00 0.00 61 1005.5
20260505090157 17 287 0.0 0.0 0.00 0.00 0.00 61 1005.5
20260505085659 17 287 0.0 0.0 0.00 0.00 0.00 61 1005.7
20260505085203 17 360 0.0 0.0 0.00 0.00 0.00 62 1005.7
20260505084701 17 293 0.0 0.0 0.00 0.00 0.00 62 1005.7
20260505084209 17 294 0.0 0.0 0.00 0.00 0.00 63 1005.5
20260505083648 17 263 0.0 0.0 0.00 0.00 0.00 61 1005.5
20260505083208 18 360 0.0 0.0 0.00 0.00 0.00 60 1005.5
20260505082652 17 118 0.0 0.0 0.00 0.00 0.00 63 1005.8
20260505082150 17 125 0.0 0.0 0.00 0.00 0.00 64 1005.8
20260505081658 17 360 0.0 0.0 0.00 0.00 0.00 66 1005.8
20260505081202 16 182 0.0 0.0 0.00 0.00 0.00 63 1005.8
20260505080710 16 172 0.0 0.0 0.00 0.00 0.00 66 1005.8
20260505080154 16 172 0.0 0.0 0.00 0.00 0.00 68 1005.8
20260505075656 16 165 0.0 0.0 0.00 0.00 0.00 69 1006.1
20260505075204 15 194 0.0 0.0 0.00 0.00 0.00 68 1006.1
20260505074707 15 265 0.0 0.0 0.00 0.00 0.00 68 1006.1
20260505074152 15 265 0.0 0.0 0.00 0.00 0.00 69 1006.3
20260505073653 15 275 0.0 0.0 0.00 0.00 0.00 69 1006.3
20260505073156 15 281 0.0 0.0 0.00 0.00 0.00 69 1006.3
20260505072701 14 298 0.0 0.0 0.00 0.00 0.00 71 1006.6
20260505072156 14 299 0.0 0.0 0.00 0.00 0.00 71 1006.6
20260505071658 14 287 1.6 0.0 0.00 0.00 0.00 72 1006.6
20260505071159 13 296 3.2 0.0 0.00 0.00 0.00 71 1006.6
20260505070659 13 273 1.6 0.0 0.00 0.00 0.00 73 1006.6
20260505070204 13 271 0.0 0.0 0.00 0.00 0.00 75 1006.6
20260505065706 13 167 0.0 0.0 0.00 0.00 0.00 76 1006.8
20260505065205 13 167 0.0 0.0 0.00 0.00 0.00 76 1006.8
20260505064703 13 164 0.0 0.0 0.00 0.00 0.00 76 1006.8
20260505064208 13 163 0.0 0.0 0.00 0.00 0.00 78 1006.9
20260505063705 12 163 0.0 0.0 0.00 0.00 0.00 78 1006.9
20260505063207 12 163 0.0 0.0 0.00 0.00 0.00 78 1006.9
20260505062659 12 163 0.0 0.0 0.00 0.00 0.00 78 1007.1
20260505062208 12 163 0.0 0.0 0.00 0.00 0.00 79 1007.1
20260505061656 12 163 0.0 0.0 0.00 0.00 0.00 79 1007.1
20260505061156 12 157 1.6 0.0 0.00 0.00 0.00 80 1006.7
20260505060659 12 157 1.6 0.0 0.00 0.00 0.00 79 1006.7
20260505060157 12 183 1.6 0.0 0.00 0.00 0.00 80 1006.7
20260505055701 11 172 1.6 0.0 0.00 0.00 0.00 81 1006.8
20260505055206 11 177 1.6 0.0 0.00 0.00 0.00 82 1006.8
20260505054708 11 173 1.6 0.0 0.00 0.00 0.00 82 1006.8
20260505054156 10 172 1.6 0.0 0.00 0.00 0.00 83 1006.7
20260505053658 10 184 1.6 0.0 0.00 0.00 0.00 83 1006.7
20260505053159 10 189 0.0 0.0 0.00 0.00 0.00 84 1006.7
20260505052701 9 151 0.0 0.0 0.00 0.00 0.00 85 1006.9
20260505052205 8 151 0.0 0.0 0.00 0.00 0.00 85 1006.9
20260505051659 8 151 0.0 0.0 0.00 0.00 0.00 85 1006.9
20260505051153 8 150 0.0 0.0 0.00 0.00 0.00 85 1007.1
20260505050708 8 151 1.6 0.0 0.00 0.00 0.00 85 1007.1
20260505050155 7 151 1.6 0.0 0.00 0.00 0.00 85 1007.1
20260505041705 6 220 0.0 0.0 0.00 0.00 0.00 81 1007.4
20260505041158 6 221 0.0 0.0 0.00 0.00 0.00 81 1007.4
20260505040700 6 221 0.0 0.0 0.00 0.00 0.00 81 1007.4
20260505040203 6 221 0.0 0.0 0.00 0.00 0.00 81 1007.4
20260505035708 6 360 0.0 0.0 0.00 0.00 0.00 81 1007.2
20260505035156 6 360 0.0 0.0 0.00 0.00 0.00 81 1007.2
20260505034657 6 227 0.0 0.0 0.00 0.00 0.00 81 1007.2
20260505034153 7 227 0.0 0.0 0.00 0.00 0.00 81 1007.2
20260505033702 7 227 0.0 0.0 0.00 0.00 0.00 81 1007.2
20260505033207 7 227 0.0 0.0 0.00 0.00 0.00 81 1007.2
20260505032709 7 162 0.0 0.0 0.00 0.00 0.00 81 1007.4
20260505032152 7 155 0.0 0.0 0.00 0.00 0.00 80 1007.4
20260505031654 7 153 0.0 0.0 0.00 0.00 0.00 80 1007.4
20260505031200 7 153 0.0 0.0 0.00 0.00 0.00 80 1007.5
20260505030659 7 153 0.0 0.0 0.00 0.00 0.00 80 1007.5
20260505030210 7 154 0.0 0.0 0.00 0.00 0.00 80 1007.5
20260505025655 7 360 0.0 0.0 0.00 0.00 0.00 80 1007.4
20260505025155 7 154 0.0 0.0 0.00 0.00 0.00 80 1007.4
20260505024700 7 153 0.0 0.0 0.00 0.00 0.00 80 1007.4
20260505024205 7 154 0.0 0.0 0.00 0.00 0.00 80 1007.7
20260505023703 7 154 0.0 0.0 0.00 0.00 0.00 80 1007.7
20260505023157 7 154 0.0 0.0 0.00 0.00 0.00 80 1007.7
20260505022708 7 154 0.0 0.0 0.00 0.00 0.00 80 1007.9
20260505022156 7 154 0.0 0.0 0.00 0.00 0.00 80 1007.9
20260505021657 7 360 0.0 0.0 0.00 0.00 0.00 80 1007.9
20260505021207 8 154 0.0 0.0 0.00 0.00 0.00 80 1008.1
20260505020706 8 153 0.0 0.0 0.00 0.00 0.00 80 1008.1
20260505020212 8 154 0.0 0.0 0.00 0.00 0.00 80 1008.1
20260505015657 8 153 0.0 0.0 0.00 0.00 0.00 80 1008.1
20260505015152 8 154 0.0 0.0 0.00 0.00 0.00 80 1008.1
20260505014654 8 154 0.0 0.0 0.00 0.00 0.00 80 1008.1
20260505014208 8 154 0.0 0.0 0.00 0.00 0.00 79 1007.9
20260505013700 8 153 0.0 0.0 0.00 0.00 0.00 79 1007.9
20260505013211 8 154 0.0 0.0 0.00 0.00 0.00 79 1007.9
20260505012659 8 154 0.0 0.0 0.00 0.00 0.00 78 1008.0
20260505012154 8 154 0.0 0.0 0.00 0.00 0.00 78 1008.0
20260505011658 8 154 0.0 0.0 0.00 0.00 0.00 78 1008.0
20260505011207 8 154 0.0 0.0 0.00 0.00 0.00 78 1008.0
20260505010656 8 154 0.0 0.0 0.00 0.00 0.00 78 1008.0
20260505010207 9 360 0.0 0.0 0.00 0.00 0.00 78 1008.0
20260505005710 9 155 0.0 0.0 0.00 0.00 0.00 78 1008.2
20260505005156 9 154 0.0 0.0 0.00 0.00 0.00 78 1008.2
20260505004707 9 154 0.0 0.0 0.00 0.00 0.00 79 1008.2
20260505004207 9 154 0.0 0.0 0.00 0.00 0.00 78 1008.2
20260505003708 9 360 0.0 0.0 0.00 0.00 0.00 78 1008.2
20260505003209 10 154 0.0 0.0 0.00 0.00 0.00 78 1008.2
20260505002710 10 153 0.0 0.0 0.00 0.00 0.00 78 1008.3
20260505002153 10 154 0.0 0.0 0.00 0.00 0.00 78 1008.3
20260505001656 10 154 0.0 0.0 0.00 0.00 0.00 78 1008.3
20260505001204 10 154 0.0 0.0 0.00 0.00 0.00 78 1008.4
20260505000653 10 154 0.0 0.0 0.00 0.00 0.00 77 1008.4
20260505000152 10 154 0.0 0.0 0.00 0.00 0.00 77 1008.4
20260504235701 10 154 0.0 0.0 0.00 0.00 0.00 77 1008.5
20260504235201 10 154 0.0 0.0 0.00 0.00 0.00 77 1008.5
20260504234700 10 153 0.0 0.0 0.00 0.00 0.00 77 1008.5
20260504234158 10 154 0.0 0.0 0.00 0.00 0.00 77 1008.6
20260504233653 10 153 0.0 0.0 0.00 0.00 0.00 77 1008.6
20260504233208 11 154 0.0 0.0 0.00 0.00 0.00 77 1008.6
20260504232702 11 154 0.0 0.0 0.00 0.00 0.00 77 1008.8
20260504232151 11 153 0.0 0.0 0.00 0.00 0.00 77 1008.8
20260504231701 11 154 0.0 0.0 0.00 0.00 0.00 77 1008.8
20260504231203 11 154 0.0 0.0 0.00 0.00 0.00 77 1008.9
20260504230708 11 153 0.0 0.0 0.00 0.00 0.00 77 1008.9
20260504230159 11 360 0.0 0.0 0.00 0.00 0.00 77 1008.9
20260504225711 11 154 0.0 0.0 0.00 0.00 0.00 77 1008.9
20260504225159 11 153 0.0 0.0 0.00 0.00 0.00 77 1008.9
20260504224709 11 154 0.0 0.0 0.00 0.00 0.00 77 1008.9
20260504224152 11 153 0.0 0.0 0.00 0.00 0.00 77 1008.9
20260504223702 11 177 0.0 0.0 0.00 0.00 0.00 77 1008.9
20260504223210 11 177 0.0 0.0 0.00 0.00 0.00 77 1008.9
20260504222713 11 179 0.0 0.0 0.00 0.00 0.00 77 1009.0
20260504222154 12 195 0.0 0.0 0.00 0.00 0.00 77 1009.0
20260504221657 12 161 0.0 0.0 0.00 0.00 0.00 76 1009.0
20260504221205 12 167 0.0 0.0 0.00 0.00 0.00 76 1008.8
20260504220706 12 240 0.0 0.0 0.00 0.00 0.00 76 1008.8
20260504220156 12 302 0.0 0.0 0.00 0.00 0.00 76 1008.8
20260504215701 12 302 0.0 0.0 0.00 0.00 0.03 75 1009.2
20260504215206 12 302 0.0 0.0 0.00 0.00 0.03 75 1009.2
20260504214654 12 302 0.0 0.0 0.00 0.00 0.03 75 1009.2
20260504214203 12 302 1.6 0.0 0.00 0.00 0.03 75 1010.1
20260504213708 12 302 1.6 0.0 0.00 0.00 0.03 74 1010.1
20260504213157 13 300 0.0 0.0 0.00 0.00 0.03 73 1010.1
20260504212700 13 250 0.0 0.0 0.00 0.00 0.03 72 1010.1
20260504212211 13 250 0.0 0.0 0.00 0.00 0.03 72 1010.1
20260504211709 13 249 0.0 0.0 0.00 0.00 0.03 72 1010.1
20260504211212 13 249 0.0 0.0 0.00 0.00 0.03 72 1010.2
20260504210658 13 250 0.0 0.0 0.00 0.00 0.03 71 1010.2
20260504210201 13 250 0.0 0.0 0.00 0.00 0.03 71 1010.2
20260504205704 13 250 0.0 0.0 0.00 0.00 0.03 71 1010.1
20260504205201 13 249 0.0 0.0 0.00 0.00 0.03 71 1010.1
20260504204706 13 249 0.0 0.0 0.00 0.00 0.03 71 1010.1
20260504204209 14 249 1.6 0.0 0.00 0.00 0.03 71 1010.1
20260504203654 14 252 1.6 0.0 0.00 0.00 0.03 71 1010.1
20260504203203 14 84 0.0 0.0 0.00 0.00 0.03 70 1010.1
20260504202706 14 360 0.0 0.0 0.00 0.00 0.03 70 1010.3
20260504202209 14 84 0.0 0.0 0.00 0.00 0.03 70 1010.3
20260504201656 15 85 0.0 0.0 0.00 0.00 0.03 71 1010.3
20260504201157 15 83 0.0 0.0 0.00 0.00 0.03 70 1009.9
20260504200659 15 140 0.0 0.0 0.00 0.00 0.03 70 1009.9
20260504200204 15 85 0.0 0.0 0.00 0.00 0.03 69 1009.9
20260504195713 15 91 0.0 0.0 0.00 0.00 0.03 69 1010.5
20260504195154 15 91 1.6 0.0 0.00 0.00 0.03 69 1010.5
20260504194712 15 91 0.0 0.0 0.00 0.00 0.03 68 1010.5
20260504194157 15 62 0.0 0.0 0.00 0.00 0.03 67 1010.7
20260504193658 15 94 0.0 0.0 0.00 0.00 0.03 67 1010.7
20260504193204 15 106 0.0 0.0 0.00 0.00 0.03 67 1010.7
20260504192704 16 164 3.2 0.0 0.00 0.00 0.03 67 1010.6
20260504192155 16 100 4.8 0.0 0.00 0.00 0.03 66 1010.6
20260504191702 16 78 1.6 0.0 0.00 0.00 0.00 66 1010.6
20260504191207 16 360 0.0 0.0 0.00 0.00 0.00 65 1011.1
20260504190657 17 125 0.0 0.0 0.00 0.00 0.00 63 1011.1
20260504190155 17 173 0.0 0.0 0.00 0.00 0.00 63 1011.1
20260504185702 17 360 1.6 0.0 0.00 0.00 0.00 62 1010.6
20260504185152 17 181 3.2 0.0 0.00 0.00 0.00 60 1010.6
20260504184659 18 178 4.8 0.0 0.00 0.00 0.00 60 1010.6
20260504184204 18 170 4.8 0.0 0.00 0.00 0.00 58 1009.7
20260504183713 18 180 4.8 0.0 0.00 0.00 0.00 56 1009.7
20260504183203 19 144 3.2 0.0 0.00 0.00 0.00 53 1009.7
20260504182656 20 5 1.6 0.0 0.00 0.00 0.00 52 1009.3
20260504182201 20 159 0.0 0.0 0.00 0.00 0.00 52 1009.3
20260504181658 20 340 0.0 0.0 0.00 0.00 0.00 48 1009.3
20260504181201 20 341 0.0 0.0 0.00 0.00 0.00 47 1008.5
20260504180704 20 342 0.0 0.0 0.00 0.00 0.00 45 1008.5
20260504180202 20 342 0.0 0.0 0.00 0.00 0.00 45 1008.5
20260504175710 20 343 0.0 0.0 0.00 0.00 0.00 45 1008.4
20260504175213 20 343 0.0 0.0 0.00 0.00 0.00 45 1008.4
20260504174700 20 344 0.0 0.0 0.00 0.00 0.00 46 1008.4
20260504174201 20 343 0.0 0.0 0.00 0.00 0.00 46 1008.4